sat.trackr.live / text

‹ back to catalog

COSMOS 2433 (720)

NORAD 32275 · 2007-052A

PAYLOAD ACTIVE UNKNOWN

§ Identity

Operator
Country
CIS
Launch date
2007-10-26
Launch site
TYMSC
Launch vehicle
Mass (kg)
RCS (m²)
5.09

Purposes: nav

External: N2YO · Heavens-Above · Gunter

§ Orbital elements

Epoch: 2026-05-24T10:51:58.864896Z

Period
675.73 min
Inclination
65.5906°
Eccentricity
0.0001785
Mean motion
2.13103979 rev/d
Perigee alt
19,125.2 km
Apogee alt
19,134.3 km
Semi-major
25,507.9 km
B*
0.0000e+0
RAAN
316.7315°
Arg perigee
184.9058°
Mean anomaly
175.0920°
Rev number
14,455

§ Raw data

COSMOS 2433 (720)1 32275U 07052A   26144.45276464 -.00000045  00000+0  00000+0 0  99962 32275  65.5906 316.7315 0001785 184.9058 175.0920  2.13103979144552

JSON: /api/v1/satellites/32275 · /tle

For live sub-satellite position, see the globe view (requires WebGL).

§ Visibility from observer

Set your observer location to see the next 7 days of passes ≥ 10°. The values pass through the URL so the page stays shareable.

No JS? Fill the form by hand. The geolocation button needs JavaScript.